CW3081 Weather Reports


time (UTC)temp
C
wind
direction
speed
KPH
gust
KPH
rain 1hr
cm
rain 24hr
cm
rain mn
cm
humidity
%
barometer
mb
20260831211557 31 0 0.0 0.0 0.00 0.00 0.00 65 1018.6
20260831210053 31 0 0.0 1.6 0.00 0.00 0.00 65 1018.6
20260831204550 31 27 0.0 1.6 0.00 0.00 0.00 63 1018.7
20260831203106 32 0 0.0 1.6 0.00 0.00 0.00 62 1018.6
20260831201550 32 0 0.0 3.2 0.00 0.00 0.00 63 1018.7
20260831200059 32 317 0.0 1.6 0.00 0.00 0.00 66 1018.9
20260831194628 32 294 0.0 3.2 0.00 0.00 0.00 62 1019.1
20260831193050 32 70 0.0 1.6 0.00 0.00 0.00 60 1019.3
20260831191555 32 360 0.0 3.2 0.00 0.00 0.00 63 1019.4
20260831190123 31 0 0.0 3.2 0.00 0.00 0.00 62 1019.5
20260831184604 31 32 1.6 3.2 0.00 0.00 0.00 67 1019.7
20260831183108 31 0 0.0 1.6 0.00 0.00 0.00 65 1019.9
20260831181551 32 0 0.0 4.8 0.00 0.00 0.00 65 1020.0
20260831180101 31 0 0.0 3.2 0.00 0.00 0.00 64 1020.3
20260831174554 30 202 0.0 1.6 0.00 0.00 0.00 69 1020.6
20260831173049 28 0 0.0 0.0 0.00 0.00 0.00 80 1020.7
20260831171559 29 0 0.0 0.0 0.00 0.00 0.00 73 1020.8
20260831170056 30 0 0.0 0.0 0.00 0.00 0.00 73 1020.9
20260831164559 30 0 0.0 1.6 0.00 0.00 0.00 72 1021.0
20260831163051 30 0 0.0 3.2 0.00 0.00 0.00 72 1021.0
20260831161602 29 0 0.0 3.2 0.00 0.00 0.00 74 1021.1
20260831160104 30 255 0.0 3.2 0.00 0.00 0.00 72 1021.1
20260831154706 30 0 0.0 1.6 0.00 0.00 0.00 74 1021.0
20260831153051 29 0 0.0 3.2 0.00 0.00 0.00 74 1020.9
20260831151601 28 264 0.0 1.6 0.00 0.00 0.00 77 1021.0
20260831150057 28 256 0.0 3.2 0.00 0.00 0.00 77 1020.7
20260831144554 27 0 0.0 1.6 0.00 0.00 0.00 79 1020.7
20260831143107 27 0 0.0 0.0 0.00 0.00 0.00 83 1020.6
20260831141610 26 0 0.0 1.6 0.00 0.00 0.00 86 1020.6
20260831140057 25 0 0.0 0.0 0.00 0.00 0.00 90 1020.5
20260831134601 24 0 0.0 0.0 0.00 0.00 0.00 93 1020.5
20260831133050 23 0 0.0 0.0 0.00 0.00 0.00 96 1020.4
20260831131549 22 0 0.0 0.0 0.00 0.00 0.00 97 1020.4
20260831130058 21 0 0.0 0.0 0.00 0.00 0.00 97 1020.4
20260831124559 -17 0.0 0.0 0.00 0.00 0.00 1020.3
20260831123052 -17 0.0 0.0 0.00 0.00 0.00 1020.1
20260831121600 -17 0.0 0.0 0.00 0.00 0.00 1020.0
20260831120053 -17 0.0 0.0 0.00 0.00 0.00 1020.2
20260831114553 -17 0.0 0.0 0.00 0.00 0.00 1020.1
20260831113054 -17 0.0 0.0 0.00 0.00 0.00 1020.0
20260831111601 -17 0.0 0.0 0.00 0.00 0.00 1019.8
20260831110056 -17 0.0 0.0 0.00 0.00 0.00 1019.6
20260831104552 -17 0.0 0.0 0.00 0.00 0.00 1019.5
20260831103101 -17 0.0 0.0 0.00 0.00 0.00 1019.3
20260831101616 -17 0.0 0.0 0.00 0.00 0.00 1019.1
20260831100108 -17 0.0 0.0 0.00 0.00 0.00 1019.2
20260831094601 -17 0 0.0 0.0 0.00 0.00 0.00 1019.0
20260831093102 21 0 0.0 0.0 0.00 0.00 0.00 95 1018.9
20260831091556 21 0 0.0 0.0 0.00 0.00 0.00 95 1018.7
20260831090105 21 0 0.0 0.0 0.00 0.00 0.00 95 1018.9
20260831084553 21 0 0.0 0.0 0.00 0.00 0.00 96 1018.6
20260831083107 21 0 0.0 0.0 0.00 0.00 0.00 96 1018.7
20260831081554 21 0 0.0 0.0 0.00 0.00 0.00 95 1018.6
20260831080054 21 0 0.0 0.0 0.00 0.00 0.00 95 1018.5
20260831074552 21 0 0.0 0.0 0.00 0.00 0.00 95 1018.4
20260831073103 21 0 0.0 0.0 0.00 0.00 0.00 95 1018.5
20260831071554 21 0 0.0 0.0 0.00 0.00 0.00 95 1018.6
20260831070052 21 0 0.0 0.0 0.00 0.00 0.00 95 1018.7
20260831064558 22 0 0.0 0.0 0.00 0.00 0.00 95 1018.8
20260831063052 22 0 0.0 0.0 0.00 0.00 0.00 95 1018.8
20260831061607 22 0 0.0 0.0 0.00 0.00 0.00 95 1018.9
20260831054558 22 0 0.0 0.0 0.00 0.00 0.00 95 1018.9
20260831053052 22 0 0.0 0.0 0.00 0.00 0.00 95 1018.9
20260831051623 22 0 0.0 0.0 0.00 0.00 0.00 95 1018.9
20260831050051 22 0 0.0 0.0 0.00 0.00 0.00 94 1018.9
20260831044601 22 0 0.0 0.0 0.00 0.00 0.00 94 1018.8
20260831043052 22 0 0.0 0.0 0.00 0.00 0.00 94 1018.8
20260831041605 22 0 0.0 0.0 0.00 0.00 0.00 94 1018.9
20260831040101 23 0 0.0 0.0 0.00 0.00 0.00 94 1018.9
20260831034551 23 0 0.0 0.0 0.00 0.00 0.00 94 1019.1
20260831033051 23 0 0.0 0.0 0.00 0.00 0.00 93 1019.0
20260831031548 23 0 0.0 0.0 0.00 0.00 0.00 93 1019.0
20260831030110 23 0 0.0 0.0 0.00 0.00 0.00 92 1019.0
20260831024639 23 0 0.0 0.0 0.00 0.00 0.00 92 1018.8
20260831023055 23 0 0.0 0.0 0.00 0.00 0.00 91 1018.8
20260831021558 24 0 0.0 0.0 0.00 0.00 0.00 91 1018.7
20260831020104 24 0 0.0 0.0 0.00 0.00 0.00 90 1018.7
20260831014603 24 0 0.0 0.0 0.00 0.00 0.00 90 1018.5
20260831013113 25 0 0.0 0.0 0.00 0.00 0.00 89 1018.2
20260831011555 25 0 0.0 0.0 0.00 0.00 0.00 88 1018.0
20260831010051 25 0 0.0 0.0 0.00 0.00 0.00 87 1017.8
20260831004551 26 0 0.0 0.0 0.00 0.00 0.00 85 1018.0
20260831003100 26 0 0.0 0.0 0.00 0.00 0.00 84 1017.9
20260831001551 27 0 0.0 0.0 0.00 0.00 0.00 82 1017.7
20260831000058 28 0 0.0 0.0 0.00 0.00 0.00 79 1017.7
20260830234603 28 0 0.0 0.0 0.00 0.00 0.00 78 1017.8
20260830233049 29 0 0.0 0.0 0.00 0.00 0.00 76 1017.6
20260830231601 29 0 0.0 0.0 0.00 0.00 0.00 75 1017.8
20260830230056 30 0 0.0 0.0 0.00 0.00 0.00 74 1017.8
20260830224555 30 0 0.0 0.0 0.00 0.00 0.00 71 1017.6
20260830223049 31 0 0.0 0.0 0.00 0.00 0.00 67 1017.8
20260830221559 31 0 0.0 1.6 0.00 0.00 0.00 66 1017.6
20260830220054 31 0 0.0 1.6 0.00 0.00 0.00 67 1017.5
20260830214558 31 273 0.0 1.6 0.00 0.00 0.00 65 1017.4
20260830213054 31 0 0.0 1.6 0.00 0.00 0.00 63 1017.6